Henderson, TX

2:54 AM CST on February 24, 2017 (GMT -0600)
Henderson

Weather History for KRFI - January, 2013

Change the Weather History Date:

Tuesday, January 8, 2013

  Actual Average (KGGG) Record (KGGG)
Temperature  
Mean Temperature 50 °F -  
Max Temperature 59 °F 55 °F 77 °F (2006)
Min Temperature 41 °F 36 °F 13 °F (1996)
Degree Days  
Heating Degree Days 15    
Moisture  
Dew Point 46 °F    
Average Humidity 86    
Maximum Humidity 100    
Minimum Humidity 66    
Precipitation  
Precipitation 0.43 in - - ()
Sea Level Pressure  
Sea Level Pressure 30.06 in    
Wind  
Wind Speed 4 mph (East)    
Max Wind Speed 21 mph    
Max Gust Speed 26 mph    
Visibility 9 miles    
Events Rain , Thunderstorm    
Averages and records for this station are not official NWS values.
T = Trace of Precipitation, MM = Missing Value Source: NWS Daily Summary

Daily Weather History Graph

Daily Weather History Graph

Search for Another Location

Airport or City:

Trip Planner

Search our weather history database for the weather conditions in past years. The results will help you decide how hot, cold, wet, or windy it might be!

Date:

Astronomy

Jan. 08, 2013 Rise Set
Actual Time 7:21 AM CST 5:31 PM CST
Civil Twilight 6:54 AM CST 5:58 PM CST
Nautical Twilight 6:24 AM CST 6:28 PM CST
Astronomical Twilight 5:54 AM CST 6:58 PM CST
Moon 3:56 AM CST (1/8) 2:34 PM CST (1/8)
Length of Visible Light 11h 03m
Length of Day
10h 10m
Waning Crescent, 13% of the Moon is Illuminated
Jan 8
Waning Crescent
Jan 11
New
Jan 18
First Quarter
Jan 26
Full
Feb 3
Last Quarter

Hourly Weather History & Observations

Time (CST) Temp. Windchill Dew Point Humidity Pressure Visibility Wind Dir Wind Speed Gust Speed Precip Events Conditions
12:15 AM 44.6 °F - 33.8 °F 66% 30.15 in 10.0 mi Calm Calm - N/A   Mostly Cloudy
12:35 AM 44.6 °F - 35.6 °F 71% 30.14 in 10.0 mi Calm Calm - N/A   Overcast
12:55 AM 42.8 °F 41.1 °F 35.6 °F 76% 30.13 in 10.0 mi East 3.5 mph - N/A   Overcast
1:15 AM 44.6 °F 43.1 °F 33.8 °F 66% 30.12 in 10.0 mi East 3.5 mph - N/A   Scattered Clouds
1:35 AM 42.8 °F - 33.8 °F 70% 30.13 in 10.0 mi Calm Calm - N/A   Scattered Clouds
1:55 AM 42.8 °F - 33.8 °F 70% 30.13 in 10.0 mi Calm Calm - N/A   Scattered Clouds
2:15 AM 41.0 °F - 35.6 °F 81% 30.12 in 10.0 mi Calm Calm - N/A   Mostly Cloudy
2:35 AM 42.8 °F - 35.6 °F 76% 30.12 in 10.0 mi Calm Calm - N/A   Mostly Cloudy
2:55 AM 42.8 °F - 35.6 °F 76% 30.11 in 10.0 mi Calm Calm - N/A   Overcast
3:15 AM 42.8 °F - 35.6 °F 76% 30.11 in 10.0 mi Calm Calm - N/A   Mostly Cloudy
3:35 AM 42.8 °F - 35.6 °F 76% 30.11 in 10.0 mi Calm Calm - N/A   Mostly Cloudy
3:55 AM 44.6 °F - 35.6 °F 71% 30.11 in 10.0 mi Calm Calm - N/A   Overcast
4:15 AM 44.6 °F 42.2 °F 35.6 °F 71% 30.10 in 10.0 mi East 4.6 mph - N/A   Overcast
4:35 AM 44.6 °F - 37.4 °F 76% 30.11 in 10.0 mi Calm Calm - N/A Rain Light Rain
4:55 AM 42.8 °F 40.1 °F 37.4 °F 81% 30.10 in 10.0 mi ENE 4.6 mph - 0.01 in Rain Light Rain
5:15 AM 42.8 °F 41.1 °F 39.2 °F 87% 30.09 in 7.0 mi ENE 3.5 mph - 0.02 in Rain Light Rain
5:35 AM 42.8 °F - 41.0 °F 93% 30.09 in 10.0 mi Calm Calm - 0.02 in   Drizzle
5:55 AM 42.8 °F 41.1 °F 39.2 °F 87% 30.09 in 10.0 mi ENE 3.5 mph - 0.02 in   Overcast
6:15 AM 42.8 °F 41.1 °F 41.0 °F 93% 30.09 in 10.0 mi ENE 3.5 mph - N/A   Overcast
6:35 AM 42.8 °F - 39.2 °F 87% 30.09 in 10.0 mi Calm Calm - N/A   Overcast
6:55 AM 42.8 °F 41.1 °F 41.0 °F 93% 30.09 in 10.0 mi East 3.5 mph - N/A   Overcast
7:35 AM 44.6 °F 42.2 °F 41.0 °F 87% 30.09 in 10.0 mi ENE 4.6 mph - N/A   Overcast
7:55 AM 44.6 °F - 39.2 °F 81% 30.11 in 10.0 mi Calm Calm - N/A   Overcast
8:15 AM 44.6 °F 43.1 °F 41.0 °F 87% 30.11 in 10.0 mi ENE 3.5 mph - N/A   Overcast
8:35 AM 44.6 °F 42.2 °F 41.0 °F 87% 30.11 in 10.0 mi East 4.6 mph - N/A   Overcast
8:55 AM 44.6 °F 41.4 °F 41.0 °F 87% 30.11 in 10.0 mi East 5.8 mph - N/A   Overcast
9:15 AM 46.4 °F 44.3 °F 41.0 °F 81% 30.11 in 10.0 mi ENE 4.6 mph - N/A   Overcast
9:35 AM 46.4 °F 45.2 °F 41.0 °F 81% 30.11 in 10.0 mi East 3.5 mph - N/A   Overcast
9:55 AM 46.4 °F 43.5 °F 41.0 °F 81% 30.11 in 10.0 mi East 5.8 mph - N/A   Overcast
10:15 AM 46.4 °F 44.3 °F 42.8 °F 87% 30.11 in 7.0 mi East 4.6 mph - N/A Rain Rain
10:35 AM 46.4 °F 43.5 °F 42.8 °F 87% 30.10 in 10.0 mi ESE 5.8 mph - N/A Rain , Thunderstorm Light Thunderstorms and Rain
10:55 AM 46.4 °F - 44.6 °F 93% 30.10 in 7.0 mi Calm Calm - 0.01 in Rain Light Rain
11:15 AM 46.4 °F - 44.6 °F 93% 30.10 in 5.0 mi Calm Calm - 0.02 in Rain Rain
11:35 AM 46.4 °F 45.2 °F 44.6 °F 93% 30.08 in 4.0 mi ENE 3.5 mph - 0.07 in Rain Rain
11:55 AM 46.4 °F 43.5 °F 44.6 °F 93% 30.06 in 3.0 mi East 5.8 mph - 0.13 in Rain Light Rain
12:55 PM 50.0 °F - 46.4 °F 87% 30.04 in 7.0 mi Calm Calm - N/A   Overcast
1:15 PM 50.0 °F - 48.2 °F 94% 30.01 in 7.0 mi East 5.8 mph - 0.01 in Rain Light Rain
1:55 PM 51.8 °F - 50.0 °F 94% 29.98 in 7.0 mi East 8.1 mph - 0.01 in   Overcast
2:15 PM 51.8 °F - 50.0 °F 94% 29.99 in 7.0 mi East 5.8 mph - N/A   Overcast
2:35 PM 51.8 °F - 50.0 °F 94% 29.98 in 5.0 mi ESE 11.5 mph 16.1 mph N/A Rain , Thunderstorm Light Thunderstorms and Rain
2:55 PM 51.8 °F - 50.0 °F 94% 30.01 in 5.0 mi Calm Calm - 0.01 in Rain , Thunderstorm Light Thunderstorms and Rain
3:15 PM 51.8 °F - 50.0 °F 94% 29.99 in 5.0 mi East 4.6 mph - N/A Rain Light Rain
3:35 PM 51.8 °F - 51.8 °F 100% 30.00 in 7.0 mi ESE 4.6 mph - 0.02 in Rain Light Rain
3:55 PM 53.6 °F - 51.8 °F 94% 30.00 in 5.0 mi Calm Calm - 0.04 in Rain Rain
4:15 PM 53.6 °F - 51.8 °F 94% 30.01 in 3.0 mi North 3.5 mph - 0.05 in Rain Heavy Rain
4:35 PM 53.6 °F - 51.8 °F 94% 30.00 in 2.5 mi East 5.8 mph - 0.12 in Rain Rain
4:55 PM 59.0 °F - 57.2 °F 94% 30.00 in 10.0 mi SE 13.8 mph 21.9 mph 0.14 in Rain Light Rain
5:15 PM 57.2 °F - 55.4 °F 94% 29.99 in 10.0 mi ESE 11.5 mph 17.3 mph 0.01 in Rain Light Rain
5:35 PM 57.2 °F - 55.4 °F 94% 29.98 in 10.0 mi ESE 13.8 mph 19.6 mph 0.02 in Rain Light Rain
5:55 PM 57.2 °F - 55.4 °F 94% 29.98 in 10.0 mi ESE 15.0 mph 20.7 mph 0.05 in Rain Rain
6:15 PM 57.2 °F - 55.4 °F 94% 29.97 in 10.0 mi ESE 17.3 mph 26.5 mph 0.01 in Rain Light Rain
6:35 PM 57.2 °F - 55.4 °F 94% 29.97 in 10.0 mi SE 20.7 mph 26.5 mph 0.01 in   Light Drizzle
6:55 PM 57.2 °F - 55.4 °F 94% 29.98 in 10.0 mi SE 13.8 mph 21.9 mph 0.01 in   Scattered Clouds
7:35 PM 59.0 °F - 55.4 °F 88% 29.99 in 10.0 mi SE 12.7 mph 23.0 mph N/A   Overcast
7:55 PM 59.0 °F - 55.4 °F 88% 30.00 in 10.0 mi SE 12.7 mph 21.9 mph N/A   Overcast
8:15 PM 59.0 °F - 55.4 °F 88% 30.02 in 10.0 mi SE 12.7 mph 21.9 mph N/A Rain Light Rain
8:35 PM 59.0 °F - 55.4 °F 88% 30.02 in 10.0 mi ESE 8.1 mph - N/A   Light Drizzle
8:55 PM 59.0 °F - 55.4 °F 88% 30.02 in 10.0 mi SE 6.9 mph - N/A   Drizzle
9:15 PM 59.0 °F - 55.4 °F 88% 30.04 in 10.0 mi ESE 5.8 mph - N/A   Light Drizzle
9:35 PM 59.0 °F - 55.4 °F 88% 30.04 in 10.0 mi ESE 8.1 mph - N/A   Overcast
9:55 PM 59.0 °F - 55.4 °F 88% 30.04 in 10.0 mi ESE 9.2 mph - N/A   Overcast
10:15 PM 59.0 °F - 55.4 °F 88% 30.03 in 10.0 mi ESE 9.2 mph - N/A   Overcast
10:35 PM 59.0 °F - 55.4 °F 88% 30.02 in 10.0 mi East 8.1 mph - N/A   Overcast
10:55 PM 59.0 °F - 55.4 °F 88% 30.03 in 10.0 mi East 8.1 mph - N/A   Overcast
11:15 PM 59.0 °F - 55.4 °F 88% 30.03 in 10.0 mi East 8.1 mph - N/A   Overcast
11:35 PM 59.0 °F - 55.4 °F 88% 30.05 in 5.0 mi East 6.9 mph - N/A   Overcast
11:55 PM 57.2 °F - 55.4 °F 94% 30.04 in 2.0 mi ENE 6.9 mph - N/A   Overcast